Location: Wells
(51.2093°N, 2.6446°W)
Time: 12:33:38
(UTC+00:00)

AO-7 - Visible Passes

Search period start: 10 March 2026 00:00
Search period end: 20 March 2026 00:00
Orbit: 1440 x 1458 km, 102.0° (Epoch: 10 March)

Date Brightness Start Highest point End Pass type
(mag) Time Alt. Az. Time Alt. Az. Time Alt. Az.
10 Mar ? 04:56:04 10° NE 05:00:56 16° E 05:05:47 10° ESE visible
10 Mar ? 19:50:06 10° WSW 19:54:23 15° W 19:58:43 10° NW visible
11 Mar ? 05:47:24 10° NNE 05:54:47 33° E 06:02:07 10° SSE visible
11 Mar ? 18:45:54 10° SSW 18:53:13 33° W 19:00:38 10° NNW visible
12 Mar ? 04:49:22 10° NE 04:53:37 15° E 04:57:51 10° ESE visible
12 Mar ? 19:42:10 10° WSW 19:47:03 17° W 19:52:00 10° NW visible
13 Mar ? 05:40:23 10° NE 05:47:33 30° E 05:54:39 10° SSE visible
13 Mar ? 18:38:28 10° SSW 18:45:59 37° W 18:53:35 10° NNW visible
14 Mar ? 04:42:49 10° NE 04:46:17 13° E 04:49:43 10° ESE visible
14 Mar ? 19:34:21 10° SW 19:39:45 18° W 19:45:12 10° NW visible
15 Mar ? 05:33:22 10° NE 05:40:17 28° E 05:47:09 10° SSE visible
16 Mar ? 04:36:35 10° ENE 04:38:56 11° E 04:41:16 10° E visible
16 Mar ? 19:26:37 10° SW 19:32:27 21° W 19:38:21 10° NW visible
17 Mar ? 05:26:23 10° NE 05:33:01 25° E 05:39:36 10° SE visible
18 Mar ? 19:18:57 10° SW 19:25:09 23° W 19:31:26 10° NW visible
19 Mar ? 05:19:26 10° NE 05:25:44 23° E 05:31:59 10° SE visible
